| time (UTC) | temp C | wind direction | speed KPH | gust KPH | rain 1hr cm | rain 24hr cm | rain mn cm | humidity % | barometer mb |
| 20260504060229 | 12 | 30 | 9.7 | 27.4 | 0.00 | 0.00 | 0.00 | 40 | 1012.6 |
| 20260504050522 | 12 | 68 | 9.7 | 22.5 | 0.00 | 0.00 | 0.00 | 36 | 1011.4 |
| 20260504050158 | 12 | 49 | 12.9 | 25.7 | 0.00 | 0.00 | 0.00 | 36 | 1011.1 |
| 20260504045523 | 12 | 80 | 14.5 | 27.4 | 0.00 | 0.00 | 0.00 | 36 | 1010.9 |
| 20260504045018 | 12 | 101 | 14.5 | 27.4 | 0.00 | 0.00 | 0.00 | 36 | 1010.7 |
| 20260504044634 | 13 | 69 | 14.5 | 25.7 | 0.00 | 0.00 | 0.00 | 36 | 1010.5 |
| 20260504044028 | 13 | 63 | 17.7 | 30.6 | 0.00 | 0.00 | 0.00 | 36 | 1010.3 |
| 20260504043525 | 13 | 56 | 17.7 | 32.2 | 0.00 | 0.00 | 0.00 | 35 | 1010.2 |
| 20260504043123 | 13 | 54 | 19.3 | 35.4 | 0.00 | 0.00 | 0.00 | 35 | 1010.1 |
| 20260504042521 | 13 | 69 | 20.9 | 43.5 | 0.00 | 0.00 | 0.00 | 35 | 1009.9 |
| 20260504042043 | 13 | 73 | 20.9 | 43.5 | 0.00 | 0.00 | 0.00 | 34 | 1009.8 |
| 20260504041652 | 14 | 66 | 24.1 | 33.8 | 0.00 | 0.00 | 0.00 | 35 | 1009.4 |
| 20260504041033 | 15 | 51 | 19.3 | 32.2 | 0.00 | 0.00 | 0.00 | 36 | 1009.3 |
| 20260504040518 | 15 | 67 | 17.7 | 25.7 | 0.00 | 0.00 | 0.00 | 35 | 1009.0 |
| 20260504040208 | 15 | 50 | 8.0 | 17.7 | 0.00 | 0.00 | 0.00 | 36 | 1008.8 |
| 20260504035546 | 15 | 31 | 9.7 | 17.7 | 0.00 | 0.00 | 0.00 | 36 | 1008.5 |
| 20260504035036 | 15 | 63 | 4.8 | 14.5 | 0.00 | 0.00 | 0.00 | 37 | 1008.4 |
| 20260504034656 | 15 | 59 | 1.6 | 4.8 | 0.00 | 0.00 | 0.00 | 36 | 1008.1 |
| 20260504034026 | 15 | 59 | 1.6 | 8.0 | 0.00 | 0.00 | 0.00 | 36 | 1008.1 |
| 20260504033521 | 15 | 59 | 3.2 | 8.0 | 0.00 | 0.00 | 0.00 | 35 | 1008.0 |
| 20260504033129 | 15 | 51 | 1.6 | 6.4 | 0.00 | 0.00 | 0.00 | 35 | 1008.2 |
| 20260504032525 | 15 | 34 | 3.2 | 6.4 | 0.00 | 0.00 | 0.00 | 35 | 1008.1 |
| 20260504032038 | 16 | 34 | 3.2 | 12.9 | 0.00 | 0.00 | 0.00 | 34 | 1008.1 |
| 20260504031703 | 16 | 51 | 3.2 | 12.9 | 0.00 | 0.00 | 0.00 | 34 | 1008.0 |
| 20260504031026 | 16 | 24 | 4.8 | 8.0 | 0.00 | 0.00 | 0.00 | 34 | 1007.9 |
| 20260504030541 | 16 | 42 | 4.8 | 12.9 | 0.00 | 0.00 | 0.00 | 33 | 1008.0 |
| 20260504030210 | 16 | 42 | 4.8 | 12.9 | 0.00 | 0.00 | 0.00 | 32 | 1007.9 |
| 20260504025543 | 16 | 61 | 4.8 | 19.3 | 0.00 | 0.00 | 0.00 | 32 | 1007.9 |
| 20260504025033 | 17 | 59 | 4.8 | 19.3 | 0.00 | 0.00 | 0.00 | 32 | 1007.8 |
| 20260504024700 | 17 | 60 | 6.4 | 12.9 | 0.00 | 0.00 | 0.00 | 32 | 1007.7 |
| 20260504024047 | 17 | 58 | 4.8 | 9.7 | 0.00 | 0.00 | 0.00 | 31 | 1007.6 |
| 20260504023525 | 17 | 59 | 4.8 | 9.7 | 0.00 | 0.00 | 0.00 | 28 | 1007.6 |
| 20260504023152 | 18 | 49 | 4.8 | 11.3 | 0.00 | 0.00 | 0.00 | 28 | 1007.5 |
| 20260504022539 | 18 | 34 | 4.8 | 11.3 | 0.00 | 0.00 | 0.00 | 28 | 1007.5 |
| 20260504022034 | 18 | 39 | 3.2 | 8.0 | 0.00 | 0.00 | 0.00 | 27 | 1007.5 |
| 20260504021652 | 18 | 31 | 4.8 | 14.5 | 0.00 | 0.00 | 0.00 | 27 | 1007.5 |
| 20260504021022 | 18 | 13 | 4.8 | 14.5 | 0.00 | 0.00 | 0.00 | 27 | 1007.5 |
| 20260504020524 | 19 | 31 | 6.4 | 20.9 | 0.00 | 0.00 | 0.00 | 26 | 1007.5 |
| 20260504020155 | 20 | 29 | 8.0 | 20.9 | 0.00 | 0.00 | 0.00 | 25 | 1007.5 |
| 20260504015530 | 20 | 20 | 6.4 | 14.5 | 0.00 | 0.00 | 0.00 | 24 | 1007.5 |
| 20260504015043 | 20 | 22 | 8.0 | 17.7 | 0.00 | 0.00 | 0.00 | 24 | 1007.4 |
| 20260504014654 | 21 | 39 | 9.7 | 19.3 | 0.00 | 0.00 | 0.00 | 24 | 1007.3 |
| 20260504014044 | 21 | 28 | 9.7 | 19.3 | 0.00 | 0.00 | 0.00 | 23 | 1007.3 |
| 20260504013524 | 21 | 28 | 8.0 | 20.9 | 0.00 | 0.00 | 0.00 | 23 | 1007.3 |
| 20260504013155 | 22 | 28 | 11.3 | 25.7 | 0.00 | 0.00 | 0.00 | 23 | 1007.3 |
| 20260504012527 | 22 | 20 | 11.3 | 25.7 | 0.00 | 0.00 | 0.00 | 23 | 1007.3 |
| 20260504012036 | 22 | 352 | 12.9 | 29.0 | 0.00 | 0.00 | 0.00 | 22 | 1007.3 |
| 20260504011654 | 22 | 25 | 17.7 | 29.0 | 0.00 | 0.00 | 0.00 | 22 | 1007.2 |
| 20260504011042 | 22 | 11 | 17.7 | 27.4 | 0.00 | 0.00 | 0.00 | 21 | 1007.3 |
| 20260504010527 | 22 | 341 | 19.3 | 32.2 | 0.00 | 0.00 | 0.00 | 21 | 1007.2 |
| 20260504010201 | 22 | 12 | 22.5 | 32.2 | 0.00 | 0.00 | 0.00 | 21 | 1007.3 |
| 20260504005536 | 22 | 23 | 17.7 | 32.2 | 0.00 | 0.00 | 0.00 | 21 | 1007.2 |
| 20260504005016 | 22 | 23 | 22.5 | 32.2 | 0.00 | 0.00 | 0.00 | 21 | 1007.3 |
| 20260504004647 | 22 | 9 | 17.7 | 30.6 | 0.00 | 0.00 | 0.00 | 21 | 1007.3 |
| 20260504004039 | 23 | 5 | 17.7 | 30.6 | 0.00 | 0.00 | 0.00 | 21 | 1007.3 |
| 20260504003542 | 22 | 333 | 12.9 | 22.5 | 0.00 | 0.00 | 0.00 | 21 | 1007.4 |
| 20260504003152 | 23 | 343 | 16.1 | 32.2 | 0.00 | 0.00 | 0.00 | 21 | 1007.3 |
| 20260504002518 | 23 | 346 | 19.3 | 33.8 | 0.00 | 0.00 | 0.00 | 21 | 1007.5 |
| 20260504002018 | 23 | 24 | 24.1 | 33.8 | 0.00 | 0.00 | 0.00 | 21 | 1007.3 |
| 20260504001653 | 23 | 14 | 17.7 | 27.4 | 0.00 | 0.00 | 0.00 | 21 | 1007.4 |
| 20260504001029 | 23 | 360 | 17.7 | 32.2 | 0.00 | 0.00 | 0.00 | 21 | 1007.6 |
| 20260504000535 | 23 | 16 | 17.7 | 40.2 | 0.00 | 0.00 | 0.00 | 21 | 1007.5 |
| 20260504000128 | 23 | 10 | 22.5 | 37.0 | 0.00 | 0.00 | 0.00 | 21 | 1007.5 |
| 20260503235536 | 23 | 15 | 20.9 | 32.2 | 0.00 | 0.00 | 0.00 | 21 | 1007.5 |
| 20260503235038 | 23 | 342 | 17.7 | 33.8 | 0.00 | 0.00 | 0.00 | 20 | 1007.4 |
| 20260503234704 | 23 | 343 | 20.9 | 32.2 | 0.00 | 0.00 | 0.00 | 20 | 1007.5 |
| 20260503234041 | 23 | 9 | 19.3 | 29.0 | 0.00 | 0.00 | 0.00 | 20 | 1007.5 |
| 20260503233536 | 23 | 21 | 16.1 | 29.0 | 0.00 | 0.00 | 0.00 | 20 | 1007.5 |
| 20260503233203 | 23 | 352 | 11.3 | 32.2 | 0.00 | 0.00 | 0.00 | 21 | 1007.4 |
| 20260503232521 | 23 | 15 | 24.1 | 32.2 | 0.00 | 0.00 | 0.00 | 20 | 1007.5 |
| 20260503232045 | 23 | 310 | 17.7 | 30.6 | 0.00 | 0.00 | 0.00 | 20 | 1007.5 |
| 20260503231636 | 23 | 327 | 20.9 | 29.0 | 0.00 | 0.00 | 0.00 | 20 | 1007.6 |
| 20260503231040 | 23 | 352 | 16.1 | 29.0 | 0.00 | 0.00 | 0.00 | 20 | 1007.6 |
| 20260503230518 | 23 | 9 | 19.3 | 35.4 | 0.00 | 0.00 | 0.00 | 20 | 1007.6 |
| 20260503230139 | 23 | 9 | 16.1 | 29.0 | 0.00 | 0.00 | 0.00 | 20 | 1007.5 |
| 20260503225541 | 23 | 352 | 12.9 | 32.2 | 0.00 | 0.00 | 0.00 | 19 | 1007.7 |
| 20260503225043 | 23 | 335 | 19.3 | 32.2 | 0.00 | 0.00 | 0.00 | 20 | 1007.7 |
| 20260503224645 | 23 | 298 | 16.1 | 30.6 | 0.00 | 0.00 | 0.00 | 20 | 1007.8 |
| 20260503224028 | 23 | 337 | 11.3 | 25.7 | 0.00 | 0.00 | 0.00 | 20 | 1007.8 |
| 20260503223537 | 23 | 344 | 17.7 | 30.6 | 0.00 | 0.00 | 0.00 | 20 | 1008.1 |
| 20260503223124 | 23 | 344 | 17.7 | 27.4 | 0.00 | 0.00 | 0.00 | 20 | 1007.9 |
| 20260503222521 | 23 | 17 | 12.9 | 37.0 | 0.00 | 0.00 | 0.00 | 20 | 1008.0 |
| 20260503222036 | 23 | 330 | 17.7 | 37.0 | 0.00 | 0.00 | 0.00 | 19 | 1008.1 |
| 20260503221701 | 23 | 317 | 14.5 | 30.6 | 0.00 | 0.00 | 0.00 | 20 | 1008.0 |
| 20260503221016 | 23 | 320 | 14.5 | 32.2 | 0.00 | 0.00 | 0.00 | 20 | 1008.2 |
| 20260503220537 | 23 | 13 | 17.7 | 27.4 | 0.00 | 0.00 | 0.00 | 20 | 1008.2 |
| 20260503220214 | 23 | 315 | 9.7 | 29.0 | 0.00 | 0.00 | 0.00 | 20 | 1008.3 |
| 20260503215540 | 23 | 319 | 14.5 | 30.6 | 0.00 | 0.00 | 0.00 | 19 | 1008.5 |
| 20260503215022 | 23 | 43 | 19.3 | 38.6 | 0.00 | 0.00 | 0.00 | 19 | 1008.3 |
| 20260503214656 | 23 | 17 | 20.9 | 38.6 | 0.00 | 0.00 | 0.00 | 20 | 1008.6 |
| 20260503214034 | 23 | 17 | 14.5 | 32.2 | 0.00 | 0.00 | 0.00 | 20 | 1008.6 |
| 20260503213537 | 23 | 360 | 19.3 | 32.2 | 0.00 | 0.00 | 0.00 | 20 | 1008.8 |
| 20260503213148 | 22 | 16 | 16.1 | 30.6 | 0.00 | 0.00 | 0.00 | 19 | 1008.8 |
| 20260503212542 | 22 | 321 | 11.3 | 35.4 | 0.00 | 0.00 | 0.00 | 20 | 1008.8 |
| 20260503212015 | 23 | 346 | 16.1 | 35.4 | 0.00 | 0.00 | 0.00 | 20 | 1008.9 |
| 20260503211623 | 23 | 321 | 14.5 | 30.6 | 0.00 | 0.00 | 0.00 | 19 | 1008.9 |
| 20260503211042 | 22 | 316 | 16.1 | 30.6 | 0.00 | 0.00 | 0.00 | 20 | 1008.9 |
| 20260503210539 | 22 | 17 | 14.5 | 33.8 | 0.00 | 0.00 | 0.00 | 19 | 1009.4 |
| 20260503210155 | 23 | 338 | 19.3 | 37.0 | 0.00 | 0.00 | 0.00 | 19 | 1009.3 |
| 20260503205519 | 23 | 326 | 17.7 | 51.5 | 0.00 | 0.00 | 0.00 | 20 | 1009.2 |
| 20260503205041 | 22 | 348 | 11.3 | 29.0 | 0.00 | 0.00 | 0.00 | 19 | 1009.4 |
| 20260503204638 | 23 | 294 | 17.7 | 29.0 | 0.00 | 0.00 | 0.00 | 18 | 1009.4 |
| 20260503204026 | 22 | 347 | 12.9 | 41.8 | 0.00 | 0.00 | 0.00 | 20 | 1009.4 |
| 20260503203621 | 23 | 334 | 17.7 | 41.8 | 0.00 | 0.00 | 0.00 | 20 | 1009.4 |
| 20260503203153 | 22 | 352 | 11.3 | 24.1 | 0.00 | 0.00 | 0.00 | 20 | 1009.5 |
| 20260503202542 | 22 | 9 | 11.3 | 35.4 | 0.00 | 0.00 | 0.00 | 20 | 1009.7 |
| 20260503202041 | 22 | 336 | 20.9 | 38.6 | 0.00 | 0.00 | 0.00 | 19 | 1009.7 |
| 20260503201658 | 22 | 352 | 8.0 | 30.6 | 0.00 | 0.00 | 0.00 | 19 | 1009.8 |
| 20260503201038 | 22 | 331 | 16.1 | 30.6 | 0.00 | 0.00 | 0.00 | 19 | 1009.8 |
| 20260503200519 | 22 | 338 | 16.1 | 30.6 | 0.00 | 0.00 | 0.00 | 19 | 1009.8 |
| 20260503200205 | 22 | 21 | 17.7 | 30.6 | 0.00 | 0.00 | 0.00 | 18 | 1009.8 |
| 20260503195536 | 22 | 338 | 11.3 | 29.0 | 0.00 | 0.00 | 0.00 | 19 | 1009.9 |
| 20260503195036 | 22 | 360 | 17.7 | 29.0 | 0.00 | 0.00 | 0.00 | 19 | 1010.0 |
| 20260503194633 | 22 | 18 | 17.7 | 30.6 | 0.00 | 0.00 | 0.00 | 19 | 1010.0 |
| 20260503194020 | 22 | 327 | 19.3 | 30.6 | 0.00 | 0.00 | 0.00 | 17 | 1010.0 |
| 20260503193520 | 22 | 352 | 20.9 | 30.6 | 0.00 | 0.00 | 0.00 | 18 | 1010.2 |
| 20260503193118 | 22 | 32 | 16.1 | 33.8 | 0.00 | 0.00 | 0.00 | 17 | 1010.1 |
| 20260503192531 | 22 | 348 | 16.1 | 32.2 | 0.00 | 0.00 | 0.00 | 17 | 1010.2 |
| 20260503192037 | 22 | 9 | 19.3 | 35.4 | 0.00 | 0.00 | 0.00 | 19 | 1010.2 |
| 20260503191644 | 22 | 337 | 12.9 | 35.4 | 0.00 | 0.00 | 0.00 | 18 | 1010.2 |
| 20260503191024 | 22 | 307 | 14.5 | 35.4 | 0.00 | 0.00 | 0.00 | 19 | 1010.3 |
| 20260503190533 | 22 | 311 | 19.3 | 35.4 | 0.00 | 0.00 | 0.00 | 19 | 1010.3 |
| 20260503190203 | 22 | 309 | 17.7 | 30.6 | 0.00 | 0.00 | 0.00 | 19 | 1010.4 |
| 20260503185542 | 21 | 338 | 17.7 | 30.6 | 0.00 | 0.00 | 0.00 | 19 | 1010.4 |
| 20260503185045 | 22 | 319 | 11.3 | 24.1 | 0.00 | 0.00 | 0.00 | 20 | 1010.6 |
| 20260503184628 | 22 | 332 | 8.0 | 40.2 | 0.00 | 0.00 | 0.00 | 21 | 1010.6 |
| 20260503184040 | 22 | 323 | 20.9 | 40.2 | 0.00 | 0.00 | 0.00 | 20 | 1010.7 |
| 20260503183523 | 22 | 321 | 12.9 | 25.7 | 0.00 | 0.00 | 0.00 | 20 | 1010.7 |
| 20260503183137 | 21 | 326 | 9.7 | 27.4 | 0.00 | 0.00 | 0.00 | 21 | 1010.9 |
| 20260503182540 | 21 | 323 | 16.1 | 30.6 | 0.00 | 0.00 | 0.00 | 21 | 1011.0 |
| 20260503182042 | 21 | 327 | 19.3 | 30.6 | 0.00 | 0.00 | 0.00 | 22 | 1011.0 |
| 20260503181639 | 21 | 322 | 11.3 | 24.1 | 0.00 | 0.00 | 0.00 | 21 | 1011.2 |
| 20260503181021 | 21 | 25 | 12.9 | 24.1 | 0.00 | 0.00 | 0.00 | 22 | 1011.2 |
| 20260503180535 | 21 | 346 | 9.7 | 30.6 | 0.00 | 0.00 | 0.00 | 23 | 1011.3 |
| 20260503180109 | 21 | 352 | 14.5 | 22.5 | 0.00 | 0.00 | 0.00 | 23 | 1011.5 |
| 20260503175540 | 21 | 252 | 9.7 | 22.5 | 0.00 | 0.00 | 0.00 | 24 | 1011.5 |
| 20260503175031 | 21 | 288 | 9.7 | 19.3 | 0.00 | 0.00 | 0.00 | 25 | 1011.5 |
| 20260503174648 | 20 | 5 | 4.8 | 24.1 | 0.00 | 0.00 | 0.00 | 26 | 1011.7 |
| 20260503174034 | 20 | 333 | 8.0 | 24.1 | 0.00 | 0.00 | 0.00 | 27 | 1011.7 |
| 20260503173542 | 20 | 272 | 4.8 | 16.1 | 0.00 | 0.00 | 0.00 | 30 | 1011.7 |
| 20260503173215 | 20 | 249 | 4.8 | 19.3 | 0.00 | 0.00 | 0.00 | 32 | 1011.9 |
| 20260503172541 | 20 | 304 | 11.3 | 19.3 | 0.00 | 0.00 | 0.00 | 33 | 1011.9 |
| 20260503172021 | 19 | 330 | 4.8 | 14.5 | 0.00 | 0.00 | 0.00 | 36 | 1011.9 |
| 20260503171614 | 19 | 321 | 6.4 | 17.7 | 0.00 | 0.00 | 0.00 | 37 | 1012.1 |
| 20260503171041 | 19 | 334 | 6.4 | 17.7 | 0.00 | 0.00 | 0.00 | 38 | 1012.2 |
| 20260503170530 | 18 | 298 | 12.9 | 17.7 | 0.00 | 0.00 | 0.00 | 39 | 1012.2 |
| 20260503170156 | 19 | 265 | 9.7 | 20.9 | 0.00 | 0.00 | 0.00 | 38 | 1012.3 |
| 20260503160149 | 16 | 264 | 17.7 | 20.9 | 0.00 | 0.00 | 0.00 | 46 | 1012.5 |
| 20260503150522 | 13 | 253 | 22.5 | 32.2 | 0.00 | 0.00 | 0.00 | 57 | 1013.2 |
| 20260503150203 | 13 | 237 | 20.9 | 30.6 | 0.00 | 0.00 | 0.00 | 57 | 1013.2 |
| 20260503140152 | 10 | 238 | 22.5 | 30.6 | 0.00 | 0.00 | 0.00 | 71 | 1013.6 |
| 20260503131045 | 6 | 219 | 14.5 | 17.7 | 0.00 | 0.00 | 0.00 | 78 | 1013.6 |
| 20260503130540 | 5 | 226 | 11.3 | 16.1 | 0.00 | 0.00 | 0.00 | 79 | 1013.6 |
| 20260503130153 | 5 | 226 | 11.3 | 14.5 | 0.00 | 0.00 | 0.00 | 80 | 1013.7 |
| 20260503120157 | 4 | 240 | 6.4 | 11.3 | 0.00 | 0.00 | 0.00 | 79 | 1014.0 |
| 20260503110539 | 6 | 243 | 8.0 | 14.5 | 0.00 | 0.00 | 0.00 | 74 | 1014.5 |
| 20260503110200 | 5 | 259 | 4.8 | 11.3 | 0.00 | 0.00 | 0.00 | 73 | 1014.7 |
| 20260503100209 | 4 | 288 | 1.6 | 3.2 | 0.00 | 0.00 | 0.00 | 71 | 1014.7 |
| 20260503090209 | 4 | 248 | 3.2 | 6.4 | 0.00 | 0.00 | 0.00 | 66 | 1015.1 |
| 20260503081048 | 6 | 207 | 0.0 | 3.2 | 0.00 | 0.00 | 0.00 | 59 | 1015.5 |
| 20260503080542 | 6 | 283 | 0.0 | 4.8 | 0.00 | 0.00 | 0.00 | 60 | 1015.4 |
| 20260503080205 | 7 | 283 | 1.6 | 4.8 | 0.00 | 0.00 | 0.00 | 61 | 1015.5 |
| 20260503072538 | 7 | 276 | 0.0 | 3.2 | 0.00 | 0.00 | 0.00 | 60 | 1015.8 |
| 20260503072032 | 7 | 276 | 0.0 | 3.2 | 0.00 | 0.00 | 0.00 | 61 | 1015.8 |
| 20260503071642 | 7 | 276 | 0.0 | 3.2 | 0.00 | 0.00 | 0.00 | 60 | 1015.7 |
| 20260503071038 | 7 | 254 | 0.0 | 3.2 | 0.00 | 0.00 | 0.00 | 60 | 1015.8 |
| 20260503070538 | 7 | 254 | 0.0 | 3.2 | 0.00 | 0.00 | 0.00 | 60 | 1015.7 |
| 20260503070202 | 7 | 254 | 0.0 | 8.0 | 0.00 | 0.00 | 0.00 | 60 | 1015.9 |